OPS 4682 DEB, 51490

Orbit data source: Space-Track

OPS 4682 DEB, 51490 is space debris in LEO originally from a launch on Sat, 03 Apr 1965 UTC launched from the Air Force Western Test Range (AFWTR). Debris objects in space refer to the collection of defunct objects orbiting the Earth. Examples of debris include non-operational satellites, rocket bodies, and fragments generated from explosions, collisions, or faulty payload assembly.

Loading next visibility...
Identifier
51490, 1965-027GA
Orbit
LEO
Country
Flag of USUS
Related business
Manufacturer
Unknown
Mission
Spacecraft
Bus & Motor
Unknown
Mass
Unknown
Launch date (UTC)
1965-04-03 (61 years ago)
Launch vehicle
Unknown
Launch site
Air Force Western Test Range (AFWTR)
Object type
Payload
Rocket body
Debris
Shape & HBR
Unknown shape, 1.1 m
Radar Cross Section
Medium (>0.1 m² and <1 m²)

Expand to show TLE details & history
Last TLE update: 6 days ago

TLE from 6 days ago
0 OPS 4682 DEB
1 51490U 65027GA  26258.01761511  .00000055  00000-0  16888-3 0  9998
2 51490  90.2502   8.2030 0016315 304.8754  55.0831 12.95296153557102
Epoch: 2026-09-15T00:25Z
TLE epoch observation values (Epoch: 2026-09-15T00:25:21.945Z)
Latitude
-0.00004°
Longitude
7.87197°
Altitude
1,276.309 km
Speed
7.221 km/s
True Right ascension
00h 32m 48s
True Declination
0° 00' 00"
Sunlit
Object was in full shadow at epoch
Visualization orbit readout
Latitude
Unknown
Longitude
Unknown
Altitude
Unknown
Speed
Unknown
Apparent Right ascension
Unknown
Apparent Declination
Unknown
Sunlit
N/A
Visualization observer readout
Local Sidereal Time
06:09:37
Azimuth
Unknown
Elevation
Unknown
Doppler factor
Unknown
Orbital elements
Apogee altitude
1,290.197 km
Perigee altitude
1,265.216 km
Semi-major axis
7,655.843 km
Eccentricity
0.00163
Inclination
90.2502°
RAAN
8.203°
Arg. of periapsis
304.8754°
True anomaly
55.23658°
Mean anomaly
55.0831°
Eccentric anomaly
55.15982°
Mean motion
3.24006 °/min
Orbital period
111.11 mins
BSTAR
0.00016888
Loading maneuver chart data...
Computing Atmospheric mass density...
Loading historical data...
Loading historical data...
Loading historical data...
Loading historical data...
Loading historical data...
Loading historical data...
Loading historical data...

Documentation

Showing up to 5 results
|